Location: Newark
(17.9939°S, 31.0481°E)
Time: 04:30:34
(UTC+00:00)

deb Explorer IX - Visible Passes

Search period start: 20 November 2019 00:00
Search period end: 30 November 2019 00:00
Orbit: 546 x 1105 km, 38.8° (Epoch: 18 November)

Date Brightness Start Highest point End Pass type
(mag) Time Alt. Az. Time Alt. Az. Time Alt. Az.
20 Nov ? 16:27:09 10° SW 16:33:43 62° SE 16:40:54 10° ENE visible
20 Nov ? 18:14:56 10° WSW 18:21:07 33° NW 18:22:43 30° NNW visible
21 Nov ? 17:52:59 10° WSW 17:59:00 32° NW 18:02:11 23° N visible
22 Nov ? 17:31:02 10° W 17:36:54 31° NW 17:41:41 15° N visible
23 Nov ? 17:09:07 10° W 17:14:48 30° NW 17:20:53 10° NNE visible
24 Nov ? 16:47:14 10° W 16:52:43 28° NW 16:58:39 10° NNE visible
